Tracking 19817 objects as of 19-Aug-2019
HD Live streaming from Space Station
objects crossing your sky now

COSMOS 862 DEB


COSMOS 862 DEB is no longer on orbit


NORAD ID: 9889
Int'l Code: 1976-105F
Perigee: N/A
Apogee: N/A
Inclination: N/A
Period: N/A
Semi major axis: N/A
RCS: N/A
Launch date: October 22, 1976
Source: Commonwealth of Independent States (former USSR) (CIS)
Launch site: PLESETSK MISSILE AND SPACE COMPLEX (PKMTR)
Decay date: 2014-05-29

Note: This is SATELLITE DEBRIS
aabbcc
Your satellite tracking list
Your tracking list is empty




NASA's NSSDC Master Catalog

Two Line Element Set (TLE):
1 09889U 76105F   14149.81340938  .99999999  13489-4  37388-2 0  9990
2 09889 061.7964 133.7477 0698387 056.4813 013.1353 14.93819433151704
Source of the keplerian elements: AFSPC